OPS 4682 DEB, 38378

Orbit data source: Space-Track

OPS 4682 DEB, 38378 is space debris in LEO originally from a launch on Sat, 03 Apr 1965 UTC launched from the Air Force Western Test Range (AFWTR). Debris objects in space refer to the collection of defunct objects orbiting the Earth. Examples of debris include non-operational satellites, rocket bodies, and fragments generated from explosions, collisions, or faulty payload assembly.

Loading next visibility...
Identifier
38378, 1965-027CF
Orbit
LEO
Country
Flag of USUS
Related business
Manufacturer
Unknown
Mission
Spacecraft
Bus & Motor
Unknown
Mass
Unknown
Launch date (UTC)
1965-04-03 (61 years ago)
Launch vehicle
Unknown
Launch site
Air Force Western Test Range (AFWTR)
Object type
Payload
Rocket body
Debris
Shape & HBR
Unknown shape, 0.1 m
Radar Cross Section
Medium (>0.1 m² and <1 m²)

Expand to show TLE details & history
Last TLE update: 1 week ago

TLE from 1 week ago
0 OPS 4682 DEB
1 38378U 65027CF  26199.09391109  .00000079  00000-0  22563-3 0  9995
2 38378  90.2402 339.9994 0037185 105.1087 255.4155 13.03357448623039
Epoch: 2026-07-18T02:15Z
TLE epoch observation values (Epoch: 2026-07-18T02:15:13.918Z)
Latitude
-0.00005°
Longitude
10.27981°
Altitude
1,259.091 km
Speed
7.222 km/s
True Right ascension
22h 39m 59s
True Declination
0° 00' 00"
Sunlit
Object was in full shadow at epoch
Visualization orbit readout
Latitude
Unknown
Longitude
Unknown
Altitude
Unknown
Speed
Unknown
Apparent Right ascension
Unknown
Apparent Declination
Unknown
Sunlit
N/A
Visualization observer readout
Local Sidereal Time
13:12:19
Azimuth
Unknown
Elevation
Unknown
Doppler factor
Unknown
Orbital elements
Apogee altitude
1,274.433 km
Perigee altitude
1,217.731 km
Semi-major axis
7,624.219 km
Eccentricity
0.00372
Inclination
90.2402°
RAAN
339.9994°
Arg. of periapsis
105.1087°
True anomaly
255.00361°
Mean anomaly
255.4155°
Eccentric anomaly
255.20951°
Mean motion
3.26024 °/min
Orbital period
110.42 mins
BSTAR
0.00022563
Loading maneuver chart data...
Computing Atmospheric mass density...
Loading historical data...
Loading historical data...
Loading historical data...
Loading historical data...
Loading historical data...
Loading historical data...
Loading historical data...

Documentation

Showing up to 5 results
|